Location: Ithaca
(42.4410°N, 76.4970°W)
Time: 02:23:10
(UTC-04:00)

HST - Visible Passes

Search period start: 02 October 2014 00:00
Search period end: 12 October 2014 00:00
Orbit: 547 x 551 km, 28.5° (Epoch: 01 October)

Date Brightness Start Highest point End Pass type
(mag) Time Alt. Az. Time Alt. Az. Time Alt. Az.
08 Oct 3.3 05:48:04 10° S 05:48:57 11° S 05:49:50 10° SSE visible
09 Oct 3.2 05:40:18 10° SSW 05:41:38 11° S 05:42:58 10° SSE visible
10 Oct 3.2 05:33:34 11° S 05:34:19 12° S 05:35:49 10° SSE visible
11 Oct 3.2 05:26:53 12° S 05:26:59 12° S 05:28:31 10° SSE visible
